Satellite: FENGYUN 1D
Catalog number: 27431
Epoch time:      103062.51715560
Element set:     228 
Inclination:       98.7655 deg
RA of node:       111.1496 deg
Eccentricity:    0.0016264
Arg of perigee:    88.3067 deg
Mean anomaly:     271.9966 deg
Mean motion:   14.09180882 rev/day
Decay rate:    8.8000E-007 rev/day^2
Epoch rev:            4119
Checksum:              313

Satellite: NOAA 17
Catalog number: 27453
Epoch time:      103062.99272671
Element set:     325 
Inclination:       98.7541 deg
RA of node:       134.1323 deg
Eccentricity:    0.0011189
Arg of perigee:   321.8312 deg
Mean anomaly:      38.2073 deg
Mean motion:   14.23300259 rev/day
Decay rate:    1.9100E-006 rev/day^2
Epoch rev:            3587
Checksum:              284

Satellite: HOT BIRD 6
Catalog number: 27499
Epoch time:      103054.87288413
Element set:     70 
Inclination:        0.0150 deg
RA of node:       173.7812 deg
Eccentricity:    0.0009015
Arg of perigee:   197.5701 deg
Mean anomaly:     109.1063 deg
Mean motion:    1.00270140 rev/day
Decay rate:    7.5000E-007 rev/day^2
Epoch rev:             188
Checksum:              258

Satellite: RUBIN 2
Catalog number: 27605
Epoch time:      103063.24139712
Element set:     73 
Inclination:       64.5533 deg
RA of node:       155.7210 deg
Eccentricity:    0.0035701
Arg of perigee:   108.0428 deg
Mean anomaly:     252.4591 deg
Mean motion:   14.71389982 rev/day
Decay rate:    4.7100E-006 rev/day^2
Epoch rev:            1082
Checksum:              276


Read previous mail | Read next mail


 24.06.2026 15:24:52lGo back Go up